International Virtual Aviation Organisation

Russian Federation and Kazakhstan MCD

 

Карточка аэропорта UHMM

Внимание!
Информация на этой странице в стадии наполнения.
Если вы не увидели какой-то информации, или заметили неточность - пожалуйста сообщите нам!
Спасибо!
Команда RU-STAFF
Название аэропортаСокол
Название аэропорта (англ.)Sokol
Превышение574 ft. (175 m.)
Координаты59°54.666', 150°43.26'
Высота перехода2150m
Эшелон переходаQFE>=733mm:FL090; QFE<733:FL100
Коды ответчика6540-6577
Зона ОрВДМагадан РПИ (UHMM)
Данные METARUHMM 060700Z 33002MPS 9999 NSC M19/M31 Q1001 R10/82//60 NOSIG RMK QFE736 R28/34002MPS
Проноз погоды (TAF)UHMM 060454Z 0606/0712 34003MPS 9999 NSC
NOTAMshow/hide NOTAM
AWOS   TABLE

Информация о ВПП


Диспетчерские позиции

Позывной Наименование органа УВД Частота
UHMM_APPМагадан-Подход119.3
UHMM_TWRМагадан-Вышка120.8



Спутниковое изображение